Regional Weather Roundup
Issued by NWS

Home | Current Version | Previous Version | Text Only | Print | Product List | Glossary On
Versions: 1 2 3 4 5 6 7 8 9 10 11 12 13 14 15 16 17 18 19 20 21 22 23 24 25 26 27 28 29 30 31 32 33 34 35 36 37 38 39 40 41 42 43 44 45 46 47 48 49 50
266
ASUS45 KREV 131110
RWRNV
NEVADA REGIONAL WEATHER ROUNDUP
NATIONAL WEATHER SERVICE RENO NV
300 AM PST SAT FEB 13 2016

NOTE: "FAIR" INDICATES FEW OR NO CLOUDS BELOW 12,000 FEET WITH NO
SIGNIFICANT WEATHER AND/OR OBSTRUCTIONS TO VISIBILITY.

NVZ001-003-004-131200-
WESTERN NEVADA

CITY           SKY/WX    TMP DP  RH WIND       PRES   REMARKS
RENO           MOCLDY    40  26  57 NE3       30.27S
CARSON CITY    FAIR      32  27  80 CALM      30.29R
MINDEN         FAIR      28  25  86 CALM      30.30R
SLIDE MTN        N/A     34   5  29 NW10        N/A
PYRAMID LAKE     N/A     45 N/A N/A W5          N/A
FALLON         CLOUDY    36  33  89 SE3       30.24S
LOVELOCK       CLOUDY    31  26  82 E6        30.25R
HAWTHORNE      CLEAR     37  34  87 CALM      30.26S
$$

NVZ002-CAZ072-073-131200-
NORTHERN AND CENTRAL SIERRA

CITY           SKY/WX    TMP DP  RH WIND       PRES   REMARKS
S. LAKE TAHOE  PTCLDY    27  21  78 SW3       30.33S
TRUCKEE        PTCLDY    25  21  86 CALM      30.34R
SQUAW VLY 8000   N/A     37   1  22 SW6         N/A
SUSANVILLE     CLEAR     32  30  93 W3        30.27S
BLUE CANYON    PTCLDY    49  26  41 E3        30.31R
MAMMOTH LAKES  FAIR      32  16  51 S5        30.33F
BRIDGEPORT     FAIR      28  17  63 CALM      30.33S
$$

NVZ030-031-036-131200-
NORTHERN NEVADA

CITY           SKY/WX    TMP DP  RH WIND       PRES   REMARKS
ELKO           CLOUDY    19  15  84 E7        30.28F
WINNEMUCCA     MOCLDY    28  27  96 E3        30.24R
WENDOVER       CLOUDY    28  25  86 CALM      30.30R
$$

NVZ035-037-131200-
CENTRAL NEVADA

CITY           SKY/WX    TMP DP  RH WIND       PRES   REMARKS
ELY            CLOUDY    22  14  71 S17       30.28F
EUREKA           N/A     26  18  71 SW8       30.27F
$$

NVZ013-014-131200-
SOUTH CENTRAL NEVADA

CITY           SKY/WX    TMP DP  RH WIND       PRES   REMARKS
TONOPAH        CLOUDY    33  28  81 N8        30.28F
$$

NVZ017-020-022-131200-
SOUTHERN NEVADA

CITY           SKY/WX    TMP DP  RH WIND       PRES   REMARKS
LAS VEGAS      PTCLDY    49  24  37 W3        30.11S
N. LAS VEGAS   CLEAR     48  26  42 NW7       30.14F
NELLIS AFB     CLEAR     43  30  62 CALM      30.14S
HENDERSON      CLEAR     45  23  42 S6        30.16F
MERCURY        PTCLDY    40  24  53 SE5       30.18S
$$




USA.gov is the U.S. government's official web portal to all federal, state and local government web resources and services.